International Virtual Aviation Organisation

Russian Federation and Kazakhstan MCD

 

Карточка аэропорта URMM

Внимание!
Информация на этой странице в стадии наполнения.
Если вы не увидели какой-то информации, или заметили неточность - пожалуйста сообщите нам!
Спасибо!
Команда RU-STAFF
Название аэропортаМинеральные Воды
Название аэропорта (англ.)Mineralnyye Vody
Превышение1047 ft. (319.1 m.)
Координаты44°13.608', 43°4.9799999999999'
Высота перехода900m
Эшелон переходаQFE>=704mm:FL060; QFE<704mm:FL070
Коды ответчика1050-1057
Зона ОрВДРостов-на-Дону РПИ (URRV)
Данные METARURMM 080230Z 24002MPS 0350 0300NW R12/0800N FZFG VV002 M05/M05 Q1016 R12/090070 NOSIG RMK QBB060 MT OBSC QFE734/0978
Проноз погоды (TAF)URMM 080200Z 0803/0903 27003G08MPS 0300 FZFG OVC002 TX04/0812Z TNM06/0803Z TEMPO 0803/0807 1200 BR OVC003 BECMG 0807/0809 9999 NSW BKN011 TEMPO 0816/0903 3100 BR
NOTAMshow/hide NOTAM
AWOS   TABLE

Информация о ВПП

ВПП Длина ВПП (м.) Покрытие Курс ВПП Частота ILS
123900Бетон115111.7
303900Бетон295109.3

Диспетчерские позиции

Позывной Наименование органа УВД Частота
URMM_APPМинеральные Воды-Подход119.3
URMM_R_APPМинеральные Воды-Круг120.7
URMM_TWRМинеральные Воды-Старт128.0
URMM_GNDМинеральные Воды-Руление121.9



Спутниковое изображение